FALCON 9 DEB (51474 NORAD) Tracking and Keplerian Element Data

This shows tracking and keplerian element data for the satellite.

Feedback or suggestion? Click here.




ElementValue
Catalog51474
NameFALCON 9 DEB
Epoch Orbit271
Epoch Day46.63668016
Epoch Year2022
RAAN112.0563
Inclination53.1941
Eccentricity0.0021098
Argument of Perigee208.7175
Mean Anonmoly151.2713
Mean Motion16.38694128
Decay Rate0.06080672
L11 51474U 22010U 22046.63668016 .06080672 12087-4 45752-3 0 9993
L22 51474 53.1941 112.0563 0021098 208.7175 151.2713 16.38694128 2712



Live tracking and technical data element details for FALCON 9 DEB (NORAD 51474). FALCON 9 DEB can be tracked NOW for your location showing map with azimuth and elevation plus other details from your city location.







IsCatalogInMostPopularTable: catalog: 51474, numindb: 42
Update: records affected: 1



GetName: 51474 FALCON 9 DEB

Hit Count: updated at: Fri, 29 Sep 2023 10:23:39 GMT